DateTimeUTC,F1_A11,F1_S11,BsB_S11,BsG_S11,BsR_S11,BbsB_S11,BbsG_S11,BbsR_S11,BaB_A11,BaG_A11,BaR_A11,Tu_S11,T_S11,Uu_S11,U_S11,P_S11,T1_A11
2021-08-14T11:00:00Z,00000200,20000000,,,,,,,-000.36,-000.04,0000.12,20.0,26.2,22.6,15.5,0674.8,31.0
2021-08-14T11:01:00Z,00000200,20000000,,,,,,,0000.12,-000.22,-000.02,20.0,26.2,22.6,15.5,0674.8,31.0
2021-08-14T11:02:00Z,00000200,20000000,,,,,,,0000.16,-000.22,-000.08,20.0,26.2,22.6,15.5,0674.8,31.0
2021-08-14T11:03:00Z,00000200,60000000,,,,,,,0000.12,0000.25,0000.50,20.0,26.2,22.6,15.5,0674.8,31.0
2021-08-14T11:04:00Z,00000200,40000000,0000.43,0000.11,0000.47,-000.01,-000.13,0000.15,-000.05,0000.21,-000.54,20.1,26.1,22.7,15.9,0675.7,31.0
2021-08-14T11:05:00Z,00000200,00000000,-000.68,-000.09,-000.15,-000.31,0000.35,0000.30,-000.81,-001.00,-000.30,20.2,26.1,22.3,15.6,0675.8,31.0
2021-08-14T11:06:00Z,00000200,00000000,0000.29,-000.24,-000.17,-000.10,-000.25,0000.52,-000.47,-000.28,-000.45,20.2,26.0,22.1,15.5,0675.8,31.0
2021-08-14T11:07:00Z,00000200,00000000,0000.10,-000.29,0000.02,0000.26,-000.05,0000.00,0000.24,0000.15,-000.11,20.2,26.1,22.0,15.4,0675.7,31.0
2021-08-14T11:08:00Z,00000200,00000000,0000.66,-000.28,-000.04,-000.45,-000.22,-000.01,-000.07,-000.14,0000.24,20.2,26.0,22.1,15.5,0675.8,31.0
2021-08-14T11:09:00Z,00000200,00000000,-000.18,-000.07,0000.03,-000.70,-000.04,0000.16,0000.25,0000.30,-000.13,20.2,26.0,22.1,15.5,0675.8,31.0
2021-08-14T11:10:00Z,00000200,00000000,0000.76,-000.25,-000.03,-000.23,-000.01,0000.15,-000.22,-000.26,-000.34,20.2,26.0,22.1,15.5,0675.8,31.0
2021-08-14T11:11:00Z,00000200,00000000,-000.33,-000.17,0000.24,-000.39,-000.22,-000.04,-000.05,0000.02,0000.15,20.1,26.0,22.2,15.6,0675.9,31.0
2021-08-14T11:12:00Z,00000200,00000000,-000.47,-000.22,0000.02,-000.10,0000.08,0000.22,0000.24,-000.01,0000.09,20.2,26.0,22.3,15.7,0675.8,31.0
2021-08-14T11:13:00Z,00000200,00000000,-000.34,0000.15,-000.44,0000.42,0000.06,-000.22,-000.58,-000.40,-000.28,20.1,26.0,22.3,15.7,0675.8,31.0
2021-08-14T11:14:00Z,00000200,00000000,0000.30,-000.23,0000.03,-000.14,-000.21,0000.06,-000.17,0000.02,-000.13,20.1,26.0,22.2,15.6,0675.7,31.0
2021-08-14T11:15:00Z,00000200,00000000,-000.06,0000.19,-000.06,0000.27,0000.14,0000.35,0000.23,-000.10,-000.30,20.1,26.0,22.2,15.6,0675.8,31.0
2021-08-14T11:16:00Z,00000200,00000000,0000.49,-000.16,0000.17,0000.51,0000.23,0000.18,0000.13,-000.05,0000.15,20.1,26.0,22.2,15.6,0675.8,31.0
2021-08-14T11:17:00Z,00000200,00000000,-000.20,0000.07,0000.01,0000.19,0000.14,0000.20,0000.08,-000.05,-000.17,20.1,26.0,22.2,15.6,0675.8,31.0
2021-08-14T11:18:00Z,00000200,00000000,0000.07,-000.20,-000.06,-000.02,-000.20,0000.20,-000.50,-000.29,-000.12,20.1,26.0,22.3,15.7,0675.8,31.0
2021-08-14T11:19:00Z,00000200,00000000,0000.95,-000.21,-000.37,-000.34,-000.13,0000.12,-000.20,-000.08,-000.24,20.2,26.0,22.3,15.7,0675.7,31.0
2021-08-14T11:20:00Z,00000200,00000000,-000.18,0000.04,-000.13,0000.39,0000.01,-000.15,0000.19,0000.41,0000.36,20.1,26.0,22.3,15.7,0675.7,31.0
2021-08-14T11:21:00Z,00000200,00000000,0000.12,-000.45,0000.24,0000.32,-000.13,-000.03,-000.05,-000.34,0000.00,20.2,26.0,22.5,15.8,0675.8,31.0
2021-08-14T11:22:00Z,00000200,00000000,-000.03,-000.13,0000.18,0000.55,-000.13,0000.08,0000.02,-000.12,-000.08,20.2,26.0,22.4,15.8,0675.8,31.0
2021-08-14T11:23:00Z,00000200,00000000,0000.04,0000.10,-000.06,0000.36,0000.05,0000.24,-000.15,-000.05,-000.10,20.2,26.0,22.4,15.8,0675.8,31.0
2021-08-14T11:24:00Z,00000200,00000000,0000.24,-000.11,0000.47,0000.21,-000.08,0000.04,0000.01,0000.10,0000.03,20.2,26.0,22.6,15.9,0675.8,31.0
2021-08-14T11:25:00Z,00000200,00000000,-000.00,-000.12,0000.20,0000.35,-000.07,0000.11,-000.35,0000.06,-000.20,20.2,26.0,22.6,15.9,0675.8,31.0
2021-08-14T11:26:00Z,00000200,00000000,-000.17,-000.10,0000.12,-000.29,0000.02,0000.21,-000.20,-000.36,-000.54,20.2,26.0,22.4,15.8,0675.7,31.0
2021-08-14T11:27:00Z,00000200,00000000,0000.50,0000.05,0000.04,0000.52,0000.00,0000.16,-000.01,-000.11,0000.27,20.2,26.0,22.3,15.7,0675.8,31.0
2021-08-14T11:28:00Z,00000200,00000000,0000.02,0000.03,-000.01,0000.27,-000.08,-000.17,0000.15,-000.22,-000.12,20.2,26.0,22.3,15.7,0675.8,31.0
2021-08-14T11:29:00Z,00000200,00000000,-000.12,0000.02,0000.18,0000.02,0000.18,0000.08,-000.42,-000.35,-000.35,20.2,26.0,22.3,15.7,0675.8,31.0
2021-08-14T11:30:00Z,00000200,00000000,0000.02,-000.09,-000.18,0000.45,0000.02,0000.17,0000.31,0000.35,0000.25,20.2,26.0,22.3,15.7,0675.8,31.0
2021-08-14T11:31:00Z,00000200,00000000,-000.57,-000.35,0000.27,0000.22,-000.21,0000.47,-000.32,-000.60,0000.03,20.2,26.0,22.4,15.8,0675.9,31.0
2021-08-14T11:32:00Z,00000200,00000000,0000.44,-000.23,0000.13,0000.14,-000.01,0000.27,0000.34,0000.32,-000.21,20.2,26.0,22.5,15.8,0675.9,31.0
2021-08-14T11:33:00Z,00000200,00000000,0000.12,-000.27,0000.26,0000.39,-000.17,0000.34,-000.30,-000.14,-000.08,20.2,26.0,22.5,15.9,0675.9,31.0
2021-08-14T11:34:00Z,00000200,00000000,0000.11,0000.19,-000.00,0000.63,-000.24,0000.04,-000.35,-000.28,-000.03,20.2,26.0,22.4,15.8,0675.9,31.0
2021-08-14T11:35:00Z,00000200,00000000,-000.30,0000.03,-000.10,-000.47,-000.22,0000.04,-000.21,-000.45,-000.58,20.2,26.0,22.3,15.7,0675.8,31.0
2021-08-14T11:36:00Z,00000200,00000000,0000.18,-000.19,0000.15,-000.24,0000.14,-000.12,-000.08,0000.06,-000.11,20.2,26.0,22.1,15.6,0675.8,31.0
2021-08-14T11:37:00Z,00000200,00000000,-000.06,-000.19,0000.01,-000.32,-000.01,-000.12,-000.08,-000.14,-000.07,20.2,26.0,22.2,15.6,0675.8,31.0
2021-08-14T11:38:00Z,00000200,00000000,0000.30,0000.47,-000.09,-000.34,0000.10,0000.06,0000.32,0000.24,0000.32,20.2,26.0,22.4,15.8,0675.8,31.0
2021-08-14T11:39:00Z,00000200,00000000,0000.07,0000.12,0000.20,0000.23,-000.15,0000.27,0000.08,0000.20,0000.11,20.2,26.0,22.5,15.9,0675.9,31.0
2021-08-14T11:40:00Z,00000200,00000000,0000.75,0000.04,0000.02,-000.39,-000.15,0000.04,-000.54,-000.40,-000.65,20.2,26.0,22.4,15.8,0675.8,31.0
2021-08-14T11:41:00Z,00000200,00000000,0000.21,-000.03,-000.10,-000.03,-000.15,0000.26,-000.28,-000.23,0000.02,20.2,26.0,22.2,15.7,0675.9,31.0
2021-08-14T11:42:00Z,00000200,00000000,0000.47,0000.20,0000.27,0000.16,-000.08,-000.02,0000.09,-000.14,-000.29,20.2,26.0,22.2,15.6,0675.9,31.0
2021-08-14T11:43:00Z,00000200,00000000,0000.88,-000.03,0000.10,0000.67,-000.04,0000.23,-000.35,-000.22,-000.05,20.2,26.0,22.1,15.6,0676.0,31.0
2021-08-14T11:44:00Z,00000200,00000000,0000.01,0000.16,-000.06,-000.26,-000.16,0000.10,0000.21,-000.01,-000.14,20.2,26.0,22.2,15.7,0675.9,31.0
2021-08-14T11:45:00Z,00000200,00000000,-000.50,-000.20,-000.13,0000.08,-000.11,-000.34,0000.33,0000.16,0000.39,20.2,26.0,22.3,15.8,0675.8,31.0
2021-08-14T11:46:00Z,00000200,00000000,-000.42,-000.36,0000.31,-000.65,-000.14,0000.17,-000.72,-000.10,-000.11,20.2,26.0,22.4,15.8,0675.9,31.0
2021-08-14T11:47:00Z,00000200,00000000,0000.46,-000.22,-000.12,-000.03,0000.09,0000.09,0000.41,0000.02,0000.16,20.2,26.0,22.5,15.9,0675.9,31.0
2021-08-14T11:48:00Z,00000200,00000000,0000.24,-000.18,0000.00,0000.31,0000.06,0000.39,0000.03,0000.27,0000.19,20.2,26.0,22.6,15.9,0676.0,31.0
2021-08-14T11:49:00Z,00000200,00000000,0000.44,-000.38,0000.07,0001.02,-000.06,-000.06,0000.06,-000.32,-000.41,20.2,26.0,22.6,15.9,0675.9,31.0
2021-08-14T11:50:00Z,00000200,00000000,-000.55,-000.10,-000.07,0000.10,-000.21,0000.12,-000.09,-000.15,0000.07,20.2,26.0,22.5,15.9,0675.9,31.0
2021-08-14T11:51:00Z,00000200,00000000,-000.67,0000.06,-000.15,0000.12,0000.08,-000.15,-000.60,-000.40,-000.80,20.2,26.0,22.4,15.8,0675.9,31.0
2021-08-14T11:52:00Z,00000200,00000000,0000.28,-000.06,0000.13,-000.57,0000.10,0000.26,-000.29,-000.15,0000.18,20.2,26.0,22.3,15.7,0675.8,31.0
2021-08-14T11:53:00Z,00000200,00000000,0000.27,0000.04,0000.24,0000.30,0000.06,0000.18,-000.26,0000.01,-000.12,20.2,26.0,22.2,15.7,0675.8,31.0
2021-08-14T11:54:00Z,00000200,00000000,-000.04,-000.03,0000.36,-000.54,0000.13,0000.27,0000.37,0000.17,-000.07,20.2,26.0,22.2,15.7,0675.8,31.0
2021-08-14T11:55:00Z,00000200,00000000,0000.50,0000.02,-000.24,0000.59,0000.09,0000.05,0000.41,-000.21,0000.30,20.2,26.0,22.5,15.9,0675.9,31.0
2021-08-14T11:56:00Z,00000200,00000000,-000.15,-000.13,-000.27,-001.18,-000.06,0000.32,-000.74,-000.34,-000.54,20.2,26.0,22.4,15.8,0675.9,31.0
2021-08-14T11:57:00Z,00000200,40000000,,,,,,,0000.27,-000.01,-000.12,20.3,26.0,22.2,15.7,0676.0,31.0
2021-08-14T11:58:00Z,00000200,60000000,,,,,,,-000.76,-000.37,0000.14,20.1,26.1,22.2,15.4,0675.0,31.0
2021-08-14T11:59:00Z,00000200,20000000,,,,,,,0000.58,0000.48,-000.16,20.1,26.2,22.2,15.3,0674.9,31.0
